Wind_Speed
10 10 10 9 9 10 9 10 10 9 9 9 9 9 9 8 8 8 8 8 9 8 8 7 6 6 5 5 5 5 4 2 2 3 3 3 4 5 5 4 4 4 4 5 5 4 4 4 4
10 11 10 10 10 10 10 10 10 10 10 10 9 9 9 9 8 8 8 8 8 9 8 7 6 6 5 5 6 6 5 4 3 3 3 3 4 4 4 4 4 4 4 5 5 5 4 4 4
11 10 10 10 11 11 11 11 10 10 10 9 9 8 8 9 9 10 9 8 8 8 8 8 7 5 5 6 6 7 6 5 4 4 4 4 4 4 3 3 3 3 4 4 5 5 4 3 3
12 11 10 10 11 12 12 11 11 9 10 9 9 8 8 9 9 10 10 9 8 8 8 7 7 7 7 7 7 7 6 5 4 4 4 4 4 3 3 3 3 3 3 4 4 4 4 3 2
11 11 11 11 11 11 12 11 11 11 10 10 9 9 9 9 9 10 10 10 10 9 8 7 8 8 7 7 6 6 6 6 5 4 4 4 4 3 3 2 2 2 3 3 3 4 4 3 2
11 12 13 14 12 11 12 12 12 11 10 10 10 9 10 9 9 9 9 9 10 9 9 8 7 7 6 7 7 6 6 5 4 4 4 4 3 3 2 2 2 2 2 3 3 4 4 3 3
11 11 14 14 14 13 13 13 11 10 10 10 11 10 10 10 9 10 10 9 9 9 8 7 7 6 6 7 7 7 6 5 4 4 4 3 3 2 2 1 1 1 2 2 2 3 3 3 3
12 12 13 13 13 14 13 12 12 10 10 10 11 10 10 10 10 10 10 10 9 8 7 7 7 6 6 7 7 7 6 5 4 3 3 3 3 2 2 1 1 1 1 1 2 2 2 3 3
12 12 12 12 13 13 14 12 12 12 11 11 11 11 11 11 11 11 11 10 9 9 8 7 6 6 6 6 6 6 6 5 4 4 3 2 3 2 2 2 2 2 1 1 0 2 2 3 3
11 11 11 12 12 13 13 13 13 12 12 12 11 11 11 11 10 11 11 10 10 9 8 8 7 7 6 6 6 6 5 5 5 4 3 3 2 2 3 2 3 2 2 1 0 1 1 2 3
10 10 11 11 11 12 12 13 13 13 12 12 11 11 11 11 11 10 10 9 9 9 8 8 6 6 6 5 5 5 5 5 5 4 3 3 3 2 3 3 2 2 2 1 1 1 1 2 3
10 10 10 10 10 10 11 13 14 13 13 12 11 11 11 11 10 10 10 10 10 9 8 7 6 6 5 5 5 5 5 5 5 5 5 4 4 3 3 3 3 2 3 3 2 2 2 2 3
7 7 7 8 9 9 10 11 12 12 12 12 11 11 10 10 10 10 10 10 9 9 9 8 7 6 5 5 5 5 5 5 5 5 5 4 3 3 2 2 2 3 3 3 3 3 3 3 3
7 6 6 7 8 8 9 9 9 10 11 11 11 11 10 10 10 10 10 9 9 9 9 8 8 7 6 6 6 5 5 5 5 5 5 4 3 2 2 2 2 2 3 4 4 4 3 3 4
5 5 5 6 8 7 8 9 10 10 10 10 10 9 10 11 11 10 9 9 9 9 9 9 9 8 7 7 6 6 6 6 5 5 5 4 3 2 2 2 3 3 3 4 4 4 4 4 5
4 3 4 5 6 7 7 9 10 11 10 9 9 8 9 10 10 10 9 9 9 9 10 10 10 9 8 8 7 7 6 6 5 5 5 4 3 2 2 3 3 3 4 4 4 5 5 5 5
3 2 2 4 5 6 7 8 8 9 9 8 8 8 8 9 9 9 8 8 9 9 10 10 10 9 9 8 7 6 6 6 6 5 5 4 3 3 3 3 4 4 4 4 5 5 5 4 4
2 0 3 3 3 4 6 5 6 7 7 7 8 7 8 8 8 8 8 8 9 9 9 9 9 8 9 8 7 7 6 7 7 6 5 4 4 3 4 4 4 4 5 5 5 5 5 4 4
4 3 3 3 3 4 5 6 7 7 6 7 8 7 7 7 8 8 8 8 8 8 8 9 8 8 8 8 8 8 8 7 7 7 5 5 4 4 5 5 5 5 5 6 6 6 6 6 5
5 4 5 6 6 6 6 7 7 7 6 6 9 8 6 6 7 7 7 8 8 8 9 9 9 9 9 9 9 9 8 8 8 7 6 5 6 6 6 6 6 6 6 7 7 7 7 6 6
6 6 6 8 7 9 9 7 8 9 9 7 7 7 8 8 8 7 7 8 8 8 9 9 9 9 10 10 9 9 9 9 8 8 7 7 6 7 7 7 7 7 7 8 8 8 8 8 8
7 7 7 8 10 11 11 10 9 11 9 8 7 7 8 8 9 8 8 8 8 8 9 9 9 10 10 10 10 10 10 9 9 9 8 8 7 7 8 7 7 8 8 8 9 9 9 9 10
8 7 8 9 11 12 11 12 11 12 11 10 10 9 10 9 9 9 8 9 8 9 10 10 10 10 10 10 10 11 10 10 9 9 9 9 8 8 8 8 8 9 9 10 11 10 10 11 11
10 10 10 10 12 12 12 13 13 13 12 11 10 11 11 11 9 9 9 9 10 11 11 12 11 11 11 12 11 11 11 10 10 10 10 10 9 9 10 10 10 10 11 11 12 11 11 12 13
12 12 12 12 13 13 13 14 13 13 12 12 12 12 13 12 11 10 10 10 11 11 11 12 12 12 12 13 12 12 11 11 11 11 11 11 11 11 11 11 11 12 12 12 12 12 11 12 13
13 14 15 15 15 15 16 16 14 14 14 15 14 14 13 12 12 12 13 12 11 12 12 12 12 13 13 12 12 12 12 12 12 12 12 12 12 12 13 13 12 13 13 13 14 14 13 14 14
16 15 14 17 18 18 18 18 16 15 16 16 15 14 14 14 15 14 14 13 13 13 12 13 13 13 14 14 13 13 13 13 13 13 13 13 13 13 14 14 13 14 14 15 15 15 14 14 15
16 16 16 18 19 20 18 17 17 17 16 16 16 16 15 15 16 15 15 14 14 14 14 14 14 14 14 14 14 13 13 13 14 14 14 14 14 14 14 14 15 15 16 16 16 16 15 15 15
16 17 18 19 20 21 21 21 19 19 17 16 17 17 17 16 17 18 16 16 16 16 15 15 15 14 15 15 15 15 15 15 15 15 15 15 15 15 15 15 16 17 17 17 18 17 17 17 17
18 19 19 20 21 22 22 21 20 20 19 18 17 17 17 17 18 19 18 17 17 16 16 15 16 16 16 16 16 16 16 16 16 16 16 16 16 16 16 16 17 18 18 18 18 18 18 18 18
Wind_Direction
92 84 77 74 71 69 64 64 61 53 51 51 50 54 54 49 43 44 44 51 52 46 44 46 53 57 56 51 50 39 47 71 120 159 161 157 159 162 164 162 162 162 167 172 178 174 171 179 188
91 80 77 74 72 65 64 61 60 54 54 55 54 53 47 46 43 45 46 50 51 50 49 50 55 58 62 62 56 50 58 74 98 128 137 140 141 157 166 163 160 163 168 174 182 182 175 183 191
88 76 70 66 68 62 62 57 54 49 52 56 54 52 49 50 43 44 47 46 49 50 49 52 51 59 67 69 63 59 66 77 94 110 123 130 129 132 143 147 156 169 173 176 180 184 182 184 182
81 70 68 64 62 59 61 57 53 51 50 57 60 56 53 52 47 49 47 46 46 46 48 56 58 65 68 66 63 60 63 70 87 108 121 124 124 124 124 129 151 164 171 174 178 180 181 180 177
79 69 63 64 60 62 65 59 59 59 56 58 59 55 53 47 47 47 46 47 47 45 51 58 58 65 66 64 62 58 62 67 85 102 112 114 114 114 112 124 143 154 172 174 173 181 184 192 198
75 70 62 60 58 61 59 56 58 56 56 56 54 50 51 47 45 42 48 50 48 50 57 60 61 61 60 58 57 62 58 66 83 94 102 112 112 108 103 112 132 140 158 171 184 189 191 205 209
79 70 61 56 54 56 57 59 62 59 55 53 53 52 49 45 42 40 44 48 50 53 57 61 58 58 60 61 60 58 59 63 80 89 101 108 96 90 100 102 116 139 152 169 190 197 198 204 210
78 69 62 57 54 55 57 58 60 57 49 48 49 50 47 45 42 40 42 48 48 51 57 57 54 59 60 60 59 57 57 59 70 84 89 83 75 73 77 84 111 118 116 167 202 208 219 215 212
74 68 62 57 56 54 55 55 54 56 50 47 49 49 48 47 45 41 41 46 50 51 52 58 56 57 62 61 54 56 59 62 57 64 69 62 64 73 74 82 87 81 79 104 180 222 237 237 235
74 70 60 51 56 53 49 50 53 53 50 49 46 45 45 47 48 43 40 47 51 50 52 54 55 55 55 53 52 56 58 58 51 52 53 49 57 65 67 57 62 54 56 84 283 248 246 256 247
80 74 63 57 54 53 49 50 50 51 49 51 49 44 43 46 47 46 47 50 51 49 50 50 52 48 44 42 47 47 47 53 53 48 44 49 52 57 61 61 61 41 21 3 333 311 278 270 269
85 76 64 55 55 55 51 50 48 47 45 49 52 49 45 44 46 48 49 49 48 46 43 42 42 39 38 32 29 34 36 41 43 38 37 44 47 47 48 42 38 28 20 18 1 328 314 300 290
94 86 67 56 51 50 50 49 50 49 46 48 47 47 43 40 44 47 47 46 45 43 37 32 29 28 30 30 25 24 28 23 21 25 23 23 38 36 35 28 25 15 4 4 2 348 330 306 285
100 89 71 56 44 42 42 44 47 46 43 43 41 42 41 38 40 43 44 44 43 37 34 30 26 26 28 28 25 25 21 15 12 12 5 4 6 2 4 351 346 353 353 351 349 335 328 313 297
102 81 68 56 46 39 30 31 36 35 35 36 37 40 39 37 36 39 41 40 36 31 31 30 27 26 25 20 19 22 19 12 5 360 355 351 351 334 330 327 326 328 334 336 335 331 314 304 295
99 83 65 62 51 34 34 29 22 26 31 29 30 33 33 34 32 31 33 33 29 26 24 22 20 19 18 14 14 13 13 9 3 356 352 342 339 328 315 320 325 321 320 323 323 322 316 304 290
124 103 48 46 41 28 21 21 19 16 21 23 27 26 29 33 28 24 23 23 22 19 16 14 12 13 12 10 11 8 6 4 1 354 348 341 326 324 317 313 314 315 317 320 321 319 313 302 288
190 139 356 8 21 5 5 10 359 358 9 23 22 23 26 26 22 19 14 13 14 12 8 6 5 4 2 3 1 356 353 352 351 346 342 333 325 326 327 319 315 315 314 318 319 315 312 307 294
232 255 294 312 322 324 332 330 332 339 359 7 7 15 19 16 13 13 9 7 9 6 1 357 355 355 356 355 351 346 343 340 339 334 327 324 318 318 322 322 318 318 316 317 319 316 314 317 306
242 260 281 290 283 294 310 313 323 332 341 355 354 356 2 7 7 3 0 358 0 354 346 343 342 344 348 348 346 342 338 333 329 329 325 317 314 310 307 309 307 308 312 312 312 313 309 306 300
232 266 273 277 274 282 293 301 306 319 322 330 331 339 348 351 351 347 345 345 345 342 339 334 334 338 337 338 338 337 332 328 326 322 317 310 309 311 305 302 303 305 306 305 305 306 302 299 296
242 267 271 275 278 280 288 292 295 303 309 318 320 318 328 337 345 340 337 339 337 336 334 331 329 331 332 334 335 333 329 325 319 316 316 307 300 302 301 301 302 306 306 304 303 302 300 296 293
251 252 271 281 273 274 281 289 295 294 305 310 307 308 315 323 329 330 326 329 330 328 327 325 322 323 324 325 327 330 327 323 318 314 312 308 300 295 295 297 299 301 302 301 301 297 295 294 292
256 251 257 269 270 272 274 276 285 294 301 306 303 307 308 312 316 316 319 321 322 322 323 323 324 325 318 318 320 321 322 320 316 313 308 303 297 292 288 289 293 294 295 295 294 292 292 292 292
253 253 260 265 269 272 274 276 278 285 291 300 301 305 307 303 307 309 310 313 315 319 320 322 321 321 318 316 317 318 319 317 311 309 307 303 298 293 288 288 290 291 292 293 290 289 293 293 292
252 256 263 276 280 281 276 277 281 284 286 293 299 301 308 303 302 305 305 307 313 312 312 314 315 316 316 314 317 316 315 314 309 305 302 300 297 293 287 287 289 288 289 292 293 290 290 292 293
252 255 264 273 278 280 276 276 283 287 290 292 296 298 301 301 303 304 305 307 310 311 310 310 310 311 311 313 314 314 313 312 311 305 299 298 297 294 290 288 288 288 288 291 293 291 290 290 290
252 259 262 267 274 276 275 276 282 283 289 294 297 299 300 302 303 303 307 305 306 305 305 307 309 310 310 313 313 311 311 310 310 308 304 300 296 293 290 289 288 289 290 290 291 290 289 289 287
248 253 260 265 272 278 277 278 281 281 284 287 293 297 301 302 306 307 307 308 309 309 306 305 308 307 306 307 308 307 305 305 304 304 302 301 297 292 288 287 286 287 288 289 289 288 287 286 285
249 252 257 262 268 273 275 278 281 284 285 285 292 299 299 300 301 301 301 304 305 307 305 304 306 304 302 302 304 304 303 302 300 300 299 296 295 292 288 287 287 288 288 287 287 289 287 285 287
Height
5899 5898 5898 5898 5898 5897 5896 5896 5895 5895 5895 5894 5893 5893 5893 5893 5893 5894 5890 5888 5887 5886 5885 5885 5884 5884 5883 5882 5881 5879 5877 5876 5877 5878 5881 5883 5884 5884 5885 5885 5885 5885 5886 5886 5887 5887 5888 5888 5888
5900 5899 5900 5900 5898 5897 5897 5896 5896 5896 5896 5895 5895 5895 5894 5893 5893 5892 5890 5889 5887 5887 5886 5885 5885 5884 5883 5883 5882 5880 5878 5877 5877 5879 5882 5883 5884 5884 5885 5885 5885 5885 5886 5886 5887 5887 5887 5888 5888
5901 5901 5902 5900 5898 5898 5898 5897 5897 5897 5897 5897 5897 5896 5896 5895 5893 5892 5891 5890 5889 5888 5887 5886 5885 5884 5884 5884 5883 5882 5881 5880 5880 5882 5883 5884 5884 5885 5885 5885 5885 5885 5886 5886 5887 5887 5888 5888 5888
5903 5904 5903 5902 5900 5900 5899 5899 5898 5898 5898 5898 5898 5897 5896 5896 5894 5893 5892 5891 5890 5889 5888 5887 5886 5885 5885 5885 5885 5884 5883 5883 5883 5883 5884 5885 5885 5885 5886 5886 5886 5886 5886 5886 5887 5887 5888 5888 5888
5905 5905 5904 5902 5902 5901 5901 5901 5900 5900 5899 5899 5898 5898 5897 5896 5895 5894 5893 5892 5891 5890 5890 5889 5888 5887 5887 5886 5886 5885 5885 5885 5885 5885 5885 5885 5886 5886 5886 5886 5886 5886 5887 5887 5887 5887 5887 5888 5888
5908 5906 5905 5904 5903 5902 5902 5902 5901 5901 5901 5900 5899 5899 5898 5897 5895 5895 5894 5893 5892 5891 5891 5890 5890 5889 5888 5887 5887 5887 5886 5886 5886 5886 5886 5886 5886 5887 5887 5887 5887 5886 5887 5887 5887 5887 5887 5888 5888
5909 5908 5906 5906 5905 5905 5904 5904 5903 5903 5902 5902 5900 5900 5899 5897 5896 5895 5895 5894 5893 5893 5892 5892 5891 5890 5890 5889 5888 5888 5887 5887 5887 5887 5887 5887 5887 5887 5887 5887 5887 5887 5887 5887 5887 5887 5887 5887 5887
5909 5910 5908 5908 5907 5907 5906 5905 5905 5904 5903 5903 5902 5901 5900 5899 5897 5896 5896 5895 5894 5894 5893 5893 5892 5891 5891 5890 5890 5889 5888 5888 5888 5887 5887 5887 5888 5888 5888 5887 5887 5887 5887 5887 5887 5887 5887 5886 5887
5910 5911 5910 5909 5909 5908 5907 5907 5906 5905 5905 5903 5903 5902 5901 5900 5899 5897 5896 5896 5896 5895 5895 5894 5893 5893 5892 5891 5891 5890 5890 5889 5888 5888 5888 5888 5888 5888 5888 5887 5887 5887 5886 5886 5886 5886 5886 5886 5886
5912 5911 5912 5911 5911 5909 5908 5908 5907 5907 5906 5905 5904 5903 5902 5901 5900 5899 5898 5897 5897 5896 5896 5895 5894 5894 5893 5892 5892 5891 5890 5890 5889 5889 5889 5888 5888 5888 5888 5887 5887 5886 5886 5886 5886 5886 5885 5885 5885
5912 5913 5912 5913 5912 5911 5910 5910 5909 5908 5907 5906 5906 5905 5903 5902 5901 5900 5899 5899 5898 5897 5897 5896 5895 5894 5894 5893 5892 5891 5891 5890 5890 5889 5889 5889 5888 5888 5888 5887 5887 5887 5886 5886 5885 5885 5885 5885 5884
5914 5914 5914 5914 5914 5913 5912 5911 5911 5909 5909 5908 5907 5906 5905 5904 5903 5902 5900 5900 5899 5898 5898 5897 5896 5895 5894 5893 5892 5892 5891 5890 5890 5889 5889 5889 5888 5888 5887 5887 5887 5887 5886 5886 5885 5885 5884 5884 5884
5915 5915 5915 5915 5915 5915 5914 5913 5912 5911 5910 5909 5908 5907 5906 5905 5904 5903 5902 5901 5900 5899 5898 5897 5896 5895 5894 5893 5892 5892 5891 5890 5890 5889 5889 5888 5888 5888 5887 5887 5886 5886 5886 5885 5884 5884 5883 5883 5883
5916 5916 5916 5916 5916 5915 5915 5914 5913 5912 5911 5910 5909 5908 5907 5906 5905 5904 5903 5902 5901 5900 5899 5898 5896 5895 5894 5893 5892 5891 5891 5890 5889 5889 5888 5888 5887 5887 5886 5886 5886 5885 5885 5884 5884 5883 5882 5882 5881
5917 5917 5917 5917 5917 5916 5916 5915 5914 5913 5912 5911 5911 5909 5909 5907 5906 5905 5903 5902 5901 5900 5899 5898 5897 5895 5894 5893 5892 5891 5890 5889 5889 5888 5887 5887 5886 5886 5885 5885 5885 5884 5884 5883 5882 5882 5881 5880 5880
5917 5918 5918 5918 5917 5917 5917 5916 5915 5914 5913 5912 5911 5910 5909 5908 5907 5906 5904 5903 5902 5901 5899 5898 5897 5895 5894 5893 5892 5891 5889 5889 5888 5887 5886 5885 5885 5884 5884 5884 5884 5883 5883 5882 5881 5880 5879 5879 5878
5917 5918 5917 5918 5917 5917 5916 5916 5915 5914 5914 5913 5912 5911 5910 5908 5907 5906 5905 5903 5902 5901 5900 5898 5897 5896 5894 5893 5892 5890 5889 5888 5887 5886 5885 5884 5884 5883 5883 5883 5882 5882 5881 5881 5880 5879 5878 5877 5876
5917 5917 5917 5917 5917 5916 5916 5916 5916 5914 5914 5913 5912 5911 5910 5908 5908 5906 5905 5903 5902 5901 5900 5898 5897 5895 5894 5892 5891 5890 5888 5887 5886 5885 5884 5883 5882 5882 5882 5881 5881 5880 5880 5879 5878 5878 5877 5875 5875
5916 5916 5916 5916 5916 5916 5915 5915 5915 5913 5913 5913 5912 5911 5910 5908 5907 5906 5905 5903 5902 5901 5899 5898 5897 5895 5893 5892 5890 5889 5887 5886 5885 5883 5882 5881 5881 5880 5880 5880 5879 5879 5878 5878 5877 5876 5875 5874 5873
5914 5915 5915 5915 5915 5915 5914 5914 5914 5912 5912 5912 5912 5910 5909 5907 5906 5906 5905 5903 5901 5900 5898 5897 5895 5894 5892 5891 5889 5887 5886 5885 5883 5882 5881 5880 5879 5879 5879 5878 5878 5877 5877 5876 5875 5874 5873 5873 5871
5913 5913 5913 5914 5913 5913 5913 5913 5913 5912 5911 5911 5910 5909 5908 5907 5905 5904 5903 5902 5900 5898 5897 5895 5894 5893 5891 5890 5888 5886 5885 5883 5882 5880 5879 5878 5878 5877 5877 5877 5876 5875 5875 5874 5873 5872 5871 5870 5869
5910 5911 5912 5912 5911 5911 5911 5911 5911 5910 5909 5908 5908 5907 5906 5905 5904 5903 5901 5900 5898 5897 5895 5894 5893 5891 5889 5888 5886 5885 5883 5881 5880 5878 5877 5876 5876 5875 5875 5874 5874 5873 5872 5871 5870 5869 5868 5867 5866
5909 5910 5910 5910 5909 5909 5909 5908 5909 5907 5907 5907 5906 5906 5905 5904 5903 5901 5899 5898 5896 5895 5894 5892 5891 5889 5888 5886 5885 5883 5881 5880 5878 5876 5875 5874 5873 5873 5872 5872 5871 5871 5870 5869 5868 5866 5865 5864 5863
5907 5908 5908 5907 5907 5907 5907 5906 5906 5905 5905 5905 5904 5904 5903 5901 5900 5898 5897 5896 5894 5893 5892 5890 5888 5887 5886 5884 5883 5881 5879 5877 5876 5874 5873 5871 5870 5870 5869 5869 5868 5867 5866 5865 5864 5863 5862 5861 5860
5904 5905 5905 5904 5904 5904 5903 5901 5902 5902 5902 5902 5901 5901 5899 5898 5897 5895 5894 5893 5892 5891 5889 5888 5886 5885 5884 5882 5880 5878 5877 5875 5873 5872 5870 5869 5868 5867 5866 5865 5865 5864 5863 5862 5860 5859 5858 5858 5857
5900 5901 5902 5901 5900 5900 5899 5898 5899 5898 5898 5898 5898 5897 5896 5895 5894 5892 5891 5890 5889 5888 5887 5885 5884 5882 5880 5879 5877 5876 5874 5872 5871 5869 5867 5866 5865 5863 5863 5861 5861 5860 5859 5858 5857 5856 5855 5854 5853
5896 5897 5897 5897 5896 5896 5894 5894 5894 5894 5894 5894 5893 5893 5892 5891 5890 5889 5888 5887 5886 5885 5883 5882 5880 5879 5877 5875 5874 5872 5871 5869 5867 5866 5864 5863 5861 5860 5859 5858 5857 5856 5855 5854 5853 5852 5851 5850 5849
5893 5893 5893 5892 5891 5890 5891 5890 5891 5890 5890 5890 5889 5888 5888 5887 5886 5885 5884 5883 5882 5881 5880 5878 5877 5875 5873 5872 5870 5869 5867 5865 5864 5862 5861 5859 5858 5856 5855 5854 5853 5852 5851 5850 5849 5848 5846 5845 5844
5889 5889 5888 5888 5888 5887 5886 5889 5887 5886 5886 5885 5885 5884 5883 5882 5882 5881 5880 5879 5878 5877 5875 5874 5872 5871 5870 5868 5866 5864 5863 5862 5860 5858 5857 5855 5854 5852 5851 5850 5849 5847 5846 5845 5844 5842 5842 5840 5839
5884 5884 5884 5885 5884 5883 5882 5885 5882 5882 5881 5880 5880 5880 5879 5878 5878 5877 5876 5875 5873 5872 5871 5870 5868 5866 5865 5863 5861 5860 5859 5857 5855 5854 5852 5851 5849 5848 5846 5845 5844 5842 5841 5839 5838 5837 5836 5835 5833